Regional Weather Roundup
Issued by NWS

Home | Current Version | Previous Version | Text Only | Print | Product List | Glossary Off
Versions: 1 2 3 4 5 6 7 8 9 10 11 12 13 14 15 16 17 18 19 20 21 22 23 24 25 26 27 28 29 30 31 32 33 34 35 36 37 38 39 40 41 42 43 44 45 46 47 48 49 50

593
ASUS43 KDMX 211001
RWRIA

WEATHER ROUNDUP FOR IOWA
NATIONAL WEATHER SERVICE DES MOINES IA
400 AM CST SAT JAN 21 2017

NOTE: "FAIR" INDICATES FEW OR NO CLOUDS BELOW 12,000 FEET WITH NO
SIGNIFICANT WEATHER AND/OR OBSTRUCTIONS TO VISIBILITY.

* - THESE STATIONS ARE NOT NWS STATIONS...THUS NOT UNDER NWS
QUALITY CONTROL.  THEY ALSO DO NOT REPORT WEATHER SUCH
AS PRECIPITATION OR FOG.

IAZ001>003-012>014-020>022-031>034-043>046-211100-
   NORTHWEST IOWA

CITY           SKY/WX    TMP DP  RH WIND       PRES   REMARKS
CARROLL *      FOG       36  36 100 CALM      29.37F VSB 1
CHEROKEE *     CLOUDY    35  35 100 CALM      29.37F FOG
DENISON *      FOG       37  37 100 CALM      29.35F VSB 1/4
LE MARS *      CLOUDY    37  37 100 SE7       29.37F FOG     WCI  32
ORANGE CITY *  FOG       36  36 100 CALM      29.36F VSB 1/2
SHELDON *      FOG       34  34 100 SE5       29.35F VSB 1/2 WCI  30
SIOUX CITY     FOG       38  38 100 E6        29.36F VSB 1/4 WCI  33
SPENCER        FOG       35  35 100 E3        29.38F VSB 1/2
STORM LAKE *   LGT RAIN  34  34 100 SE5       29.36F VSB 1/4 WCI  30
$$

IAZ055>058-069>071-079>083-090>094-211100-
   SOUTHWEST IOWA

CITY           SKY/WX    TMP DP  RH WIND       PRES   REMARKS
ATLANTIC *     FOG       39  39 100 S3        29.38S VSB 1/4
AUDUBON *      FOG       37  36  93 CALM      29.38F VSB 1/4
CLARINDA *     FOG       43  43 100 SW3       29.41F VSB 1/4
COUNCIL BLFS * FOG       41  41 100 SW6       29.37F VSB<1/4
CRESTON *      FOG       41  41 100 S7        29.40S VSB<1/4
HARLAN  *      FOG       37  37 100 CALM      29.40F VSB 1/4
LAMONI         FOG       43  43 100 S7        29.40S VSB 1/4
RED OAK *      FOG       41  41 100 CALM      29.39F VSB 1/4
SHENANDOAH *   FOG       41  41 100 SW8       29.40F VSB 3/4
$$

IAZ047>049-059>061-072>074-084-211100-
   CENTRAL IOWA

CITY           SKY/WX    TMP DP  RH WIND       PRES   REMARKS
AMES           FOG       38  38 100 SE3       29.38F VSB 1/4
ANKENY *       CLOUDY    41  41 100 CALM      29.39F
BOONE *        FOG       37  37 100 CALM      29.36F VSB<1/4
CHARITON *     FOG       45  45 100 SW8       29.41R VSB 1/4
DES MOINES     FOG       43  42  97 S7        29.39F VSB 1/4
GRINNELL*      FOG       42  41  97 S10       29.41R VSB 1/4
KNOXVILLE *    FOG       45  45 100 SW9       29.39S VSB 1/2
MARSHALLTOWN   FOG       40  40 100 S9        29.38F VSB 1/4 WCI  34
NEWTON *       FOG       41  41 100 S9        29.39F VSB<1/4
PELLA *        FOG       44  44  99 SW3       29.42S VSB 1/4
PERRY *        FOG       38  37  99 CALM      29.37F VSB 1/4
$$

IAZ004>006-015-016-023>025-035-036-211100-
   NORTH CENTRAL IOWA

CITY           SKY/WX    TMP DP  RH WIND       PRES   REMARKS
ALGONA *       LGT RAIN  36  36 100 E7        29.38F WCI  30
CLARION *      CLOUDY    36  36 100 E8        29.38F FOG     WCI  29
ESTHERVILLE    FOG       33  33 100 E5        29.38F VSB 3/4 WCI  29
FORT DODGE *   CLOUDY    36  34  93 E6        29.38F WCI  31
MASON CITY     LGT RAIN  34  34 100 E6        29.40F FOG     WCI  29
FOREST CITY *  RAIN      34  34 100 E5        29.39F WCI  30
WEBSTER CITY * FOG       36 N/A N/A SE3       29.36F VSB 3/4
IOWA FALLS *   FOG       37  37  99 E5        29.39F VSB 3/4 WCI  33
$$

IAZ007>011-017>019-026>030-037>042-050>054-066-211100-
   NORTHEAST IOWA

CITY           SKY/WX    TMP DP  RH WIND       PRES   REMARKS
CEDAR RAPIDS   FOG       43  43 100 SE8       29.41F VSB 1/4
CHARLES CITY * FOG       36  36 100 SE9       29.41F VSB 1/4 WCI  29
CLINTON *      LGT RAIN  45  45 100 SE10      29.47F VSB 1/2
DECORAH *      FOG       36  36 100 E12       29.41F VSB 1/4 WCI  27
DUBUQUE        FOG       40  40 100 SE12      29.46F VSB 1/4 WCI  33
MONTICELLO *   FOG       41  41 100 SE12      29.43F VSB 1
OELWEIN *      FOG       37  37 100 SE12G23   29.41F VSB 3/4 WCI  30
WATERLOO       FOG       39  38  96 SE7       29.40F VSB 3/4 WCI  34
$$

IAZ064-065-067-068-078-211100-
   EAST CENTRAL IOWA

CITY           SKY/WX    TMP DP  RH WIND       PRES   REMARKS
DAVENPORT      FOG       45  45 100 S10       29.45F VSB 1
IOWA CITY      FOG       44  43  96 SE5       29.44F VSB 1/4
MUSCATINE *    FOG       46  46 100 S7        29.44F VSB 1/4
QUAD CITIES    MOCLDY    48  45  89 S10       29.44F FOG
$$

IAZ062-063-075>077-085>089-095>099-211100-
   SOUTHEAST IOWA

CITY           SKY/WX    TMP DP  RH WIND       PRES   REMARKS
BURLINGTON     CLEAR     46  45  96 S10       29.44F
FAIRFIELD *    CLOUDY    46  46 100 S14       29.42F FOG
FORT MADISON * CLEAR     45  45 100 S7        29.45F FOG
KEOKUK *       CLEAR     48 N/A N/A S9        29.44F
OSKALOOSA *    CLOUDY    43  43  99 S7        29.41F FOG
OTTUMWA        CLOUDY    45  44  97 S13       29.40F FOG
WASHINGTON *   FOG       46  46 100 S12       29.43F VSB 3/4
$$

ABBREVIATIONS USED IN REMARKS
   TC - TEMPERATURES IN CELSIUS
  WCI - WIND CHILL INDEX
   HX - HEAT INDEX
  VSB - VISIBILITY
$$





USA.gov is the U.S. government's official web portal to all federal, state and local government web resources and services.